Regional Weather Roundup
Issued by NWS

Home | Current Version | Previous Version | Text Only | Print | Product List | Glossary Off
Versions: 1 2 3 4 5 6 7 8 9 10 11 12 13 14 15 16 17 18 19 20 21 22 23 24 25 26 27

000
ASUS45 KTFX 020210
RWRMT
MONTANA REGIONAL WEATHER ROUNDUP
NATIONAL WEATHER SERVICE GREAT FALLS MT
700 PM MST THU DEC 01 2016

NOTE: "FAIR" INDICATES FEW OR NO CLOUDS BELOW 12000 FEET WITH NO
SIGNIFICANT WEATHER AND/OR OBSTRUCTIONS TO VISIBILITY.

MTZ001>007-043-020300-
WEST OF THE DIVIDE

CITY           SKY/WX    TMP DP  RH WIND       PRES   REMARKS
KALISPELL      LGT SNOW  33  32  96 CALM      30.11R FOG
MISSOULA       LGT SNOW  32  31  96 NW10      30.14R FOG     WCI  24
BUTTE          CLOUDY    25  19  78 N3        30.03R
MULLAN PASS    LGT SNOW  22  20  92 VRB3      30.05R VSB 3/4
ANACONDA         N/A     28  19  69 W3        30.05R
DEER LODGE       N/A     28  27  93 CALM      30.08R
EUREKA           N/A     30  28  93 CALM      30.13S
HAMILTON         N/A     34  25  69 SE7       30.12R WCI  28
LIBBY            N/A     32  30  93 CALM      30.13R
RONAN            N/A     33  30  89 CALM      30.14S
$$

MTZ008-052>055-020300-
SOUTHWEST MONTANA

CITY           SKY/WX    TMP DP  RH WIND       PRES   REMARKS
BOZEMAN        LGT SNOW  29  27  92 CALM      30.05S FOG
DILLON         CLOUDY    28  20  71 S7        30.03R WCI  21
W YELLOWSTONE  CLOUDY    18  16  93 SW12G18   30.00R WCI   5
ENNIS          CLOUDY    27  23  86 CALM      30.08R FOG
THREE FORKS      N/A     31  17  56 CALM      30.04R
TWIN BRIDGES     N/A     29  21  71 E7        30.03R WCI  22
$$

MTZ009-010-012-014-046-048-049-054-020300-
EAST SLOPES AND CENTRAL MONTANA

CITY           SKY/WX    TMP DP  RH WIND       PRES   REMARKS
CUT BANK       LGT SNOW  30  28  92 NW9       30.02R FOG     WCI  22
GREAT FALLS    LGT SNOW  30  29  96 NW5       30.04R FOG
MALMSTROM AFB  FLURRIES  30  30  99 NW3       30.04R
HELENA         CLOUDY    34  22  61 W10       30.04R WCI  26
AUGUSTA        FLURRIES  28  28  99 N5        30.01R
BOWMANS CRNR   LGT SNOW  28  28 100 NE7       30.00R FOG     WCI  21
CHOTEAU          N/A     30  30 100 CALM      30.05R FOG
CONRAD           N/A     31  31 100 NW5       30.05R
FAIRFIELD      LGT SNOW  29  27  94 W3        30.03R
POWER          LGT SNOW  29  28  98 NW6       30.02R WCI  23
RAYNESFORD     LGT SNOW  30  30  98 NW6       30.01R WCI  24
ULM            LGT SNOW  31  31  99 N10G18    30.04R VSB 1   WCI  22
$$

MTZ011-013-016-021-045-047-050-051-020300-
NORTH CENTRAL MONTANA

CITY           SKY/WX    TMP DP  RH WIND       PRES   REMARKS
HAVRE          LGT SNOW  31  30  96 W3        30.03R FOG
LEWISTOWN      CLOUDY    29  26  89 W7        30.00R WCI  22
N BAR RANCH    MOCLDY    27  19  74 NW9       29.99R WCI  17
CHINOOK          N/A     30  30 100 W5        30.03R
DENTON         MOCLDY    28  25  88 W18G24    29.98R WCI  16
GEYSER         FLURRIES  28  26  93 W2        29.99R
GRASS RANGE      N/A     28  22  77 W13       29.96R WCI  18
JUDITH GAP     LGT SNOW  27  26  96 N9        29.98R WCI  18
ROY              N/A     28  22  80 MISG      29.97R
STANFORD       MOCLDY    26  25  96 W7        29.99R WCI  18
WINIFRED         N/A     29  25  83 MISG      29.99R
$$

MTZ017>020-022>027-061-062-020300-
NORTHEAST MONTANA

CITY           SKY/WX    TMP DP  RH WIND       PRES   REMARKS
GLASGOW        CLOUDY    26  23  88 VRB6      29.99R WCI  19
JORDAN           N/A     21  17  84 W3        29.97R
WOLF POINT     CLOUDY    26  22  84 E8        30.03R WCI  18
$$

MTZ028>42-056>058-020300-
SOUTHCENTRAL AND SOUTHEAST MONTANA

CITY           SKY/WX    TMP DP  RH WIND       PRES   REMARKS
BAKER          CLOUDY    21  18  88 SE3       29.99R
BILLINGS       MOCLDY    34  20  56 W14       29.98R WCI  25
LIVINGSTON     MOCLDY    30  22  72 SW14      30.00R WCI  19
MILES CITY     CLOUDY    25  19  78 SE5       29.99R
BIG TIMBER     CLOUDY    32  23  69 SW23G31   30.01R WCI  19
FORSYTH          N/A     28  25  86 CALM      29.97S
HARLOWTON      MOCLDY    28  22  75 NW13      29.99R WCI  18
LAUREL           N/A     32  16  52 W7        29.97  WCI  26
ROUNDUP          N/A     35  17  48 W6        29.91R WCI  30
$$

REGIONAL REPORTS...DAKOTAS

CITY           SKY/WX    TMP DP  RH WIND       PRES   REMARKS
WILLISTON      CLOUDY    29  24  82 SE3       30.04R
MINOT          CLOUDY    28  22  78 CALM      30.06R
DICKINSON      CLOUDY    25  22  88 CALM      30.00R
BEACH          CLOUDY    23  23 100 SE3       30.03R
CROSBY         CLOUDY    27  27 100 SE5       30.07R
TIOGA          CLOUDY    27  27 100 E3        30.05R
WATFORD CITY   CLOUDY    27  25  93 CALM      30.04R
BISMARCK       CLOUDY    28  24  85 NE5       30.07R
GRAND FORKS    CLOUDY    30  23  75 N14       30.06R WCI  19
FARGO          CLOUDY    30  23  75 N12       30.05R WCI  20
BUFFALO SD       N/A     25  22  88 E5        29.92R
RAPID CITY     CLOUDY    22  17  81 N3        29.99R
$$

REGIONAL REPORTS...WYOMING/IDAHO/WASHINGTON

CITY           SKY/WX    TMP DP  RH WIND       PRES   REMARKS
GILLETTE       CLOUDY    28  24  85 SW3       29.96R
SHERIDAN       CLOUDY    33  23  66 W7        29.98R WCI  27
BUFFALO WY     FLURRIES  34  23  64 W8        29.98R WCI  27
CODY           CLOUDY    27  18  69 CALM      29.99R
YELLOWSTONE LA   N/A     11  10  96 CALM      29.98R
IDAHO FALLS    CLOUDY    27  21  78 S8        30.09R WCI  19
SALMON         CLOUDY    28  25  86 CALM      30.12R
BOISE          CLEAR     34  26  72 NW9       30.20R WCI  27
SPOKANE        FOG       32  31  96 SW7       30.19R VSB 1/2 WCI  26
$$

REGIONAL REPORTS...ALBERTA

CITY           SKY/WX    TMP DP  RH WIND       PRES   REMARKS
CALGARY        MOCLDY    30  25  80 NW8       30.00S WCI  23
LETHBRIDGE     CLOUDY    32  27  80 W7        30.03R WCI  26
MEDICINE HAT   MOCLDY    21  19  93 W3        30.04R
WATERTON GATE    N/A     30  21  69 SW10        N/A  WCI  21
CARDSTON         N/A     30  28  93 W1          N/A
MILK RIVER       N/A     28  28 100 W6          N/A  WCI  22
ONEFOUR          N/A     27  27 100 NW10        N/A  WCI  17
$$

REGIONAL REPORTS...SASKATCHEWAN

CITY           SKY/WX    TMP DP  RH WIND       PRES   REMARKS
SWIFT CURRENT  CLOUDY    21  21 100 NW13      29.97S WCI   9
REGINA         CLOUDY    28  27  93 SE8       30.02R WCI  20
SASKATOON      CLOUDY    27  23  86 N6        30.05R WCI  20
VAL MARIE        N/A     27  25  93 CALM        N/A
ROCKGLEN         N/A     25  25 100 SW3         N/A
ASSINIBOIA       N/A     23  21  93 W2          N/A
$$




USA.gov is the U.S. government's official web portal to all federal, state and local government web resources and services.